SCP
0 0 0 0 0 0 0 0 0 0 0 0 0 0 0 0 0 0 0 0 0 0 0 0 0 0 0 0 0 0 0 0 0 0 0 0 0 0 0 0 0 0 0 0
0 0 0 0 0 0 0 0 0 0 0 0 0 0 0 0 0 0 0 0 0 0 0 0 0 0 0 0 0 0 0 0 0 0 0 0 0 0 0 0 0 0 0 0
0 0 0 0 0 0 0 0 0 0 0 0 0 0 0 0 0 0 0 0 0 0 0 0 0 0 0 0 0 0 0 0 0 0 0 0 0 0 0 0 0 0 0 0
0 0 0 0 -0 0 0 0 0 0 0 0 0 0 0 0 0 0 0 0 0 0 0 0 0 0 0 0 0 0 0 0 0 0 0 0 0 0 0 0 0 0 0 0
0 0 0 0 0 0 0 0 0 0 0 0 0 0 0 0 0 0 0 0 0 0 0 0 0 0 0 0 0 0 0 0 0 0 0 0 0 0 0 0 0 0 0 0
0 0 0 0 -0 0 0 0 0 0 0 0 0 0 0 0 0 0 0 0 0 0 0 0 0 0 0 0 0 0 0 0 0 0 0 0 0 0 0 0 0 0 0 0
0 0 0 0 -0 -0 -0 0 0 0 0 0 0 0 0 0 0 0 0 0 0 0 0 0 0 0 0 0 0 0 0 0 0 0 0 0 0 0 0 0 0 0 0 0
0 0 0 0 -0 -0 -0 0 0 0 0 0 0 0 0 0 0 0 0 0 0 0 0 0 0 0 0 0 0 0 0 0 0 0 0 0 0 0 0 0 0 0 0 0
0 0 0 0 0 0 -0 0 0 0 0 0 0 0 0 0 0 0 0 0 0 0 0 0 0 0 0 0 0 0 0 0 0 0 0 0 0 0 0 0 0 0 0 0
0 0 0 0 0 0 0 0 0 0 0 0 0 0 0 0 0 0 0 0 0 0 0 0 0 0 0 0 0 0 0 0 0 0 0 0 0 0 0 0 0 0 0 0
0 0 0 0 0 0 0 0 0 0 0 0 0 0 0 0 0 0 0 0 0 0 0 0 0 0 0 0 0 0 0 0 0 0 0 0 0 0 0 0 0 0 0 0
0 0 0 0 0 0 0 0 0 -0 -0 0 0 0 0 0 0 0 0 0 0 0 0 0 0 0 0 0 0 0 0 0 0 0 0 0 0 0 0 0 0 0 0 0
0 0 0 0 0 0 0 0 0 -0 -0 0 0 0 0 0 0 0 0 0 0 0 0 0 0 0 0 0 0 0 0 0 0 0 0 0 0 0 0 0 0 0 0 0
0 0 0 0 0 0 0 0 0 -0 -0 0 0 0 0 0 0 0 0 0 0 0 0 0 0 0 0 0 0 0 0 0 0 0 0 0 0 0 0 0 0 0 0 0
0 0 0 0 0 0 0 0 0 0 0 0 0 0 0 0 0 0 0 0 0 0 0 0 0 0 0 0 0 0 0 0 0 0 0 0 0 0 0 0 0 0 0 0
-0 -0 0 0 0 0 0 0 0 0 0 -0 -0 0 0 0 0 0 0 0 0 0 0 0 0 0 0 0 0 0 0 0 0 0 0 0 0 0 0 0 0 0 0 0
0 0 0 0 0 0 0 0 0 0 0 0 -0 0 0 0 0 0 0 0 0 0 0 0 0 0 0 0 0 0 0 0 0 0 0 0 0 0 0 0 0 0 0 0
0 0 0 0 0 0 0 0 0 0 0 0 0 0 0 0 0 0 0 0 0 0 0 0 0 0 0 0 0 0 0 0 0 0 0 0 0 0 0 0 0 0 0 0
0 0 0 0 0 0 0 0 0 0 0 0 0 0 0 0 0 0 0 0 0 0 0 0 0 0 0 0 0 0 0 0 0 0 0 0 0 0 0 0 0 0 0 0
0 0 0 0 0 0 0 0 0 0 0 0 0 0 0 0 0 0 -0 0 0 0 0 0 0 0 0 0 0 0 0 0 0 0 0 0 0 0 0 0 0 0 0 0
0 0 0 0 0 0 0 0 0 0 0 0 0 0 0 0 0 -0 -0 -0 0 0 0 0 0 0 0 0 0 0 0 0 0 0 0 0 0 0 0 0 0 0 0 0
0 0 0 0 0 0 0 0 0 0 0 0 0 0 0 0 0 0 0 0 0 0 0 0 0 0 0 0 0 0 0 0 0 0 0 0 0 0 0 0 0 0 0 0
0 0 0 0 0 0 0 0 0 0 0 0 0 0 0 0 0 0 0 0 0 0 0 0 0 0 0 0 0 0 0 0 0 0 0 0 0 0 0 0 0 0 0 0
0 0 0 0 0 0 0 0 0 0 0 0 0 0 0 0 0 0 0 0 0 0 0 0 0 0 0 0 0 0 0 0 0 0 0 0 0 0 0 0 0 0 0 0
0 0 0 0 -0 -0 -0 -0 0 0 0 0 0 0 0 0 0 0 0 0 0 0 0 0 0 0 0 0 0 0 0 0 0 0 0 0 0 0 0 0 0 0 0 0
0 0 -0 -0 0 -0 -0 0 0 0 0 0 0 0 0 0 0 0 0 0 0 0 0 0 0 0 0 0 0 0 0 0 0 0 0 0 0 0 0 0 0 0 0 0
0 0 -0 -0 -0 0 0 0 0 0 0 0 0 0 0 0 0 0 0 0 0 0 0 0 0 0 0 0 0 0 0 0 0 0 0 0 0 0 0 0 0 0 0 0
Wind_Speed
7 8 6 7 7 7 8 8 8 8 8 9 5 4 3 1 1 1 1 0 0 0 1 1 1 2 2 2 2 2 2 2 2 2 2 2 2 2 2 2 3 2 3 3
6 7 7 9 10 10 10 10 11 11 13 7 5 3 3 2 2 2 1 1 1 1 1 2 2 2 2 2 2 2 2 2 2 2 1 1 2 2 2 2 3 2 2 3
4 3 5 9 10 11 9 8 8 11 11 5 4 4 3 3 2 2 1 1 1 1 1 2 1 1 1 2 2 2 2 2 2 2 2 2 2 2 2 2 2 3 3 2
3 3 8 7 3 6 8 8 8 8 7 4 4 4 3 2 2 1 1 1 1 1 1 2 1 1 1 1 2 2 2 2 2 1 2 2 2 2 2 2 2 2 3 3
2 5 8 4 2 3 4 6 6 7 7 4 2 3 2 1 0 1 1 1 1 1 1 1 1 1 1 1 2 2 2 2 2 1 2 2 2 2 2 2 2 2 3 3
4 5 6 3 1 1 1 6 3 4 5 3 1 2 4 2 2 2 1 0 0 0 1 1 1 0 0 1 2 2 2 2 1 1 1 1 2 2 2 2 2 3 3 3
7 7 8 3 2 3 3 6 2 3 3 3 3 4 3 2 2 2 1 1 0 0 1 1 0 0 1 1 2 2 2 2 1 1 1 1 2 2 2 2 2 3 3 3
6 7 9 3 4 6 6 1 1 1 2 2 3 2 1 2 2 2 2 1 0 0 1 1 0 0 1 2 2 2 2 1 1 1 1 1 1 2 2 2 2 2 3 3
8 8 4 5 5 4 1 1 1 1 1 1 2 3 2 2 2 2 2 1 0 0 1 1 1 0 1 2 2 1 1 1 1 1 1 1 1 2 2 2 2 2 2 3
6 7 4 4 3 3 2 3 2 1 1 1 3 3 3 3 3 2 1 1 0 0 1 2 1 1 1 2 1 1 1 1 1 1 2 2 1 1 1 2 2 2 3 3
8 7 5 4 5 4 3 3 2 2 2 3 3 4 3 3 3 2 1 1 1 1 2 2 2 1 1 1 1 1 1 1 1 1 1 1 1 1 2 2 2 2 2 3
8 5 4 4 2 3 3 3 3 2 3 3 3 3 3 3 2 2 1 1 1 1 1 2 1 1 1 1 0 0 1 1 1 1 1 1 1 2 3 3 5 5 5 5
5 3 3 3 3 2 3 3 3 3 3 4 3 2 2 2 2 1 1 1 1 1 1 1 1 1 1 0 0 0 0 0 1 1 1 1 2 2 2 3 4 5 6 6
3 2 4 4 3 2 2 2 2 2 3 3 2 1 1 2 1 1 1 1 1 1 1 1 1 1 1 0 0 0 0 1 1 1 1 1 2 2 2 2 3 3 4 6
5 5 5 3 2 2 1 1 1 2 2 2 1 1 2 2 2 2 1 0 0 0 1 1 1 1 1 0 0 0 0 0 0 1 1 1 2 2 2 2 2 3 3 4
4 4 4 4 4 3 2 3 3 4 3 2 2 2 2 2 1 1 1 1 1 1 1 1 1 1 0 0 0 0 0 1 1 1 1 1 2 2 2 2 2 2 3 3
4 5 5 5 5 4 4 4 4 4 3 3 3 2 1 1 1 1 1 1 1 2 1 1 2 1 1 1 1 0 0 0 1 1 1 1 1 2 2 2 2 2 2 3
6 6 5 5 5 4 4 4 3 3 3 3 2 2 2 2 3 2 2 1 0 1 1 1 1 1 1 1 1 1 1 0 1 1 1 1 1 1 2 2 2 2 2 3
4 4 4 4 4 4 4 3 3 3 2 3 3 3 3 3 3 2 1 1 1 2 2 1 1 1 1 1 1 1 1 0 0 1 1 1 2 1 1 2 2 2 2 2
3 2 2 2 2 3 3 3 2 2 2 3 3 2 2 2 2 2 2 2 2 2 1 1 1 1 1 1 1 1 1 1 0 0 0 1 1 1 1 2 2 2 2 2
2 2 2 2 2 2 3 3 3 3 2 3 3 3 2 2 2 2 2 2 2 1 1 2 1 1 1 1 1 1 1 1 0 0 0 0 1 1 1 1 2 2 2 2
1 2 2 2 2 1 2 2 3 3 2 2 3 3 2 2 2 2 2 2 2 2 1 1 1 2 2 1 1 1 1 1 1 0 0 0 0 1 1 1 2 2 2 2
1 1 1 2 2 1 1 1 2 3 3 3 3 3 3 2 2 2 1 1 1 2 1 1 2 3 2 1 1 1 1 1 1 0 0 0 0 0 1 1 1 1 2 2
1 1 1 1 2 2 1 1 1 2 2 2 2 3 3 2 1 1 1 2 2 1 1 1 2 2 2 1 1 1 1 1 1 1 0 0 0 0 1 1 1 1 1 2
1 1 1 2 2 2 2 2 2 2 2 2 2 2 2 2 2 1 1 1 2 1 1 1 2 1 1 1 1 1 1 1 1 1 1 0 0 0 1 1 1 1 1 1
2 2 2 2 2 2 2 2 2 2 2 2 1 1 1 1 1 1 1 1 2 2 1 1 1 1 1 1 1 1 1 0 0 0 0 0 0 0 1 1 1 1 1 1
1 1 1 1 1 2 2 2 2 2 2 2 2 1 2 1 1 2 2 1 1 1 1 1 1 1 1 1 1 1 1 1 1 0 0 0 0 0 1 1 1 1 1 1
Wind_Direction
264 275 268 254 247 228 227 232 240 258 264 272 288 286 283 278 273 257 250 266 290 320 318 323 332 347 348 342 340 336 329 313 299 296 303 313 316 310 307 304 299 293 293 289
265 254 261 266 254 239 240 243 252 267 272 270 277 287 288 284 282 267 263 283 303 309 321 321 326 333 334 325 327 333 317 307 313 312 307 304 306 305 308 310 310 311 301 296
263 269 296 265 236 222 229 229 233 248 259 289 291 283 271 269 265 258 249 280 278 284 295 298 298 301 295 306 316 321 309 309 319 312 305 304 303 308 309 311 319 320 316 313
274 300 249 246 203 205 225 239 236 250 267 282 280 286 267 237 239 249 242 269 275 275 286 305 305 295 301 314 309 304 304 308 317 318 310 311 317 316 314 316 321 316 316 317
241 257 266 261 223 186 213 258 235 247 266 283 327 323 290 320 14 238 233 242 239 245 270 298 293 298 334 313 306 305 305 311 314 310 305 309 317 322 321 324 321 314 315 321
233 248 254 246 192 143 134 268 252 231 249 262 323 277 266 342 356 339 333 304 257 316 317 293 286 36 326 303 310 303 308 307 304 298 297 311 316 316 316 317 312 318 318 317
231 245 261 234 171 124 182 251 269 214 225 234 233 235 260 315 321 317 311 294 249 300 298 287 295 127 270 291 288 294 308 310 308 307 305 312 317 311 314 315 316 315 312 312
210 231 250 175 151 191 221 252 280 250 229 228 243 260 278 288 295 305 299 292 215 239 292 312 329 179 272 283 293 308 307 307 308 309 311 320 308 308 311 314 318 316 315 318
207 224 241 180 202 221 210 249 255 252 263 235 249 257 263 264 266 270 262 268 228 220 287 308 317 203 266 293 308 314 313 312 311 320 325 319 305 303 311 315 313 315 320 322
261 264 259 236 239 238 235 241 257 256 257 244 254 259 256 256 260 261 251 258 287 301 290 293 299 283 272 292 306 318 308 309 318 331 329 328 323 315 308 311 312 318 322 321
248 262 276 248 227 238 254 250 252 252 247 241 250 260 252 253 252 248 244 230 201 233 272 283 296 287 297 312 13 351 313 317 330 332 323 329 334 324 310 297 293 299 292 292
237 234 222 241 217 211 229 236 234 248 265 260 247 257 262 260 252 238 239 227 222 247 276 287 297 296 313 340 42 329 325 352 352 346 339 337 332 334 338 315 323 317 308 304
241 263 253 258 254 226 226 238 239 232 242 260 257 244 252 259 255 247 232 213 215 238 266 278 289 288 307 321 75 234 262 317 331 337 331 329 330 325 326 336 336 330 329 325
234 235 256 251 250 248 244 238 228 236 246 245 240 231 237 250 248 251 245 224 214 228 256 261 261 271 293 335 331 285 260 304 313 301 307 313 310 308 312 321 328 333 335 335
229 226 234 246 248 245 232 197 209 244 253 250 229 216 214 224 235 253 262 222 144 220 260 246 252 277 310 347 284 265 268 262 308 317 315 311 315 322 322 317 314 316 325 337
227 230 226 227 234 229 221 215 226 239 238 236 239 234 222 220 235 249 234 179 177 229 251 244 249 259 256 247 224 192 245 318 323 320 320 324 329 326 318 314 317 322 327 328
211 229 226 231 230 230 228 222 221 228 226 227 232 227 205 208 238 241 236 202 199 235 249 239 243 228 184 192 184 180 182 300 325 327 321 325 321 316 313 316 321 324 321 325
221 225 218 216 219 229 233 226 219 218 217 216 211 201 203 210 224 236 233 225 248 270 259 230 209 170 168 177 167 173 185 231 267 286 311 321 323 321 326 325 321 321 327 336
226 225 217 207 205 205 211 217 217 210 203 190 195 208 216 222 223 224 201 195 226 257 264 201 203 162 160 172 163 170 179 210 284 317 338 328 338 338 334 328 326 332 340 347
225 217 212 208 194 196 204 205 194 196 196 182 186 200 216 220 212 202 197 222 236 232 208 172 160 158 156 167 175 173 188 206 229 324 337 327 323 329 336 335 337 343 348 347
223 211 202 196 203 206 195 187 183 193 192 178 185 200 214 223 210 197 198 244 257 211 194 187 161 161 167 173 177 159 166 176 181 215 275 307 320 334 341 341 347 349 348 345
215 200 201 192 188 206 201 186 177 175 175 182 187 186 190 205 204 213 225 224 221 207 164 156 165 181 186 168 146 152 172 177 167 172 219 294 311 326 335 339 343 342 340 341
205 195 188 182 182 188 181 171 169 170 181 190 192 192 195 203 202 198 232 224 201 204 171 175 198 190 177 143 143 161 174 166 161 177 202 241 290 310 318 326 330 331 334 342
173 166 164 159 139 141 162 187 167 167 174 185 193 191 184 185 221 224 196 186 192 192 180 198 199 188 160 130 141 155 165 161 164 167 158 105 7 325 310 309 314 321 332 339
164 166 163 155 159 175 169 151 138 149 155 160 177 187 190 189 189 184 151 161 175 149 134 180 189 177 134 128 139 140 143 160 158 147 146 144 306 307 300 297 300 316 329 333
172 174 177 182 178 170 162 156 160 165 155 151 157 157 143 130 135 136 135 144 155 148 132 126 137 138 122 130 133 135 136 135 100 100 125 158 306 325 317 307 309 312 319 324
156 154 148 146 156 163 163 162 163 169 167 162 158 155 147 140 134 131 133 135 134 127 123 121 121 121 121 122 120 123 124 113 104 116 142 132 300 293 299 306 306 309 318 322